SCP
0 0 0 0 0 0 0 0 0 0 0 0 0 0 0 0 0 0 0 0 0 0 0 0 0 0 0 0 0 0 0 0 0 0 0 0 0 0 0 0 0 0 0 0
0 0 0 0 0 0 0 0 0 0 0 0 0 0 0 0 0 0 0 0 0 0 0 0 0 0 0 0 0 0 0 0 0 0 0 0 0 0 0 0 0 0 0 0
0 0 0 0 0 0 0 0 0 0 0 0 0 0 0 0 0 0 0 0 0 0 0 0 0 0 0 0 0 0 0 0 0 0 0 0 0 0 0 0 0 0 0 0
0 0 0 0 0 0 0 0 0 0 0 0 0 0 0 0 0 0 0 0 0 0 0 0 0 0 0 0 0 0 0 0 0 0 0 0 0 0 0 0 0 0 0 0
0 0 0 0 0 0 0 0 0 0 0 0 0 0 0 0 0 0 0 0 0 0 0 0 0 0 0 0 0 0 0 0 0 0 0 0 0 0 0 0 0 0 0 0
0 0 0 0 0 0 0 0 0 0 0 0 0 0 0 0 0 0 0 0 0 0 0 0 0 0 0 0 0 0 0 0 0 0 0 0 0 0 0 0 0 0 0 0
0 0 0 0 0 0 0 0 0 0 0 0 0 0 0 0 0 0 0 0 0 0 0 0 0 0 0 0 0 0 0 0 0 0 0 0 0 0 0 0 0 0 0 0
0 0 0 0 0 0 0 0 0 0 0 0 0 0 0 0 0 0 0 0 0 0 0 0 0 0 0 0 0 0 0 0 0 0 0 0 0 0 0 0 0 0 0 0
0 0 0 0 0 0 0 0 0 0 0 0 0 0 0 0 0 0 0 0 0 0 0 0 0 0 0 0 0 0 0 0 0 0 0 0 0 0 0 0 0 0 0 0
0 0 0 0 0 0 0 0 0 0 0 0 0 0 0 0 0 0 0 0 0 0 0 0 0 0 0 0 0 0 0 0 0 0 0 0 0 0 0 0 0 0 0 0
0 0 0 0 0 0 0 0 0 0 0 0 0 0 0 0 0 0 0 0 0 0 0 0 0 0 0 0 0 0 0 0 0 0 0 0 0 0 0 0 0 0 0 0
0 0 0 0 0 0 0 0 0 0 0 0 0 0 0 0 0 0 0 0 0 0 0 0 0 0 0 0 0 0 0 0 0 0 0 0 0 0 0 0 0 0 0 0
0 0 0 0 0 0 0 0 0 0 0 0 0 0 0 0 0 0 0 0 0 0 0 0 0 0 0 0 0 0 0 0 0 0 0 0 0 0 0 0 0 0 0 0
0 0 0 0 0 0 0 0 0 0 0 0 0 0 0 0 0 0 0 0 0 0 0 0 0 0 0 0 0 0 0 0 0 0 0 0 0 0 0 0 0 0 0 0
0 0 0 0 0 -0 -0 -0 0 0 0 0 0 0 0 0 0 0 0 0 0 0 0 0 0 0 0 0 0 0 0 0 0 0 0 0 0 0 0 0 0 0 0 0
0 0 0 0 0 0 -0 -0 0 0 0 0 0 0 -0 0 0 0 0 0 0 0 0 0 0 0 0 0 0 0 0 0 0 0 0 0 0 0 0 0 0 0 0 0
0 0 0 0 0 0 0 -0 0 0 0 0 0 0 0 0 0 0 0 0 0 0 0 0 0 0 0 0 0 0 0 0 0 0 0 0 0 0 0 0 0 0 0 0
0 0 0 0 0 0 0 -0 0 0 0 0 0 0 0 0 0 0 0 0 0 0 0 0 0 0 0 0 0 0 0 0 0 0 0 0 0 0 0 0 0 0 0 0
0 0 0 0 0 0 0 0 0 0 0 0 0 0 0 0 0 0 0 0 0 0 0 0 0 0 0 0 0 0 0 0 0 0 0 0 0 0 0 0 0 0 0 0
0 0 0 0 0 0 0 0 0 0 0 0 0 0 0 0 0 0 0 0 0 0 0 0 0 0 0 0 0 0 0 0 0 0 0 0 0 0 0 0 0 0 0 0
0 0 0 0 0 0 0 0 0 0 0 0 0 0 0 0 0 0 0 0 0 0 0 0 0 0 0 0 0 0 0 0 0 0 0 0 0 0 0 0 0 0 0 0
0 0 0 0 0 0 0 0 0 0 0 0 0 0 0 0 -0 0 0 0 0 0 0 0 0 0 0 0 0 0 0 0 0 0 0 0 0 0 0 0 0 0 0 0
0 0 0 0 0 0 0 0 0 0 0 0 0 0 0 -0 -0 0 0 0 0 0 0 0 0 0 0 0 0 0 0 0 0 0 0 0 0 0 0 0 0 0 0 0
0 0 0 0 0 0 0 0 0 0 0 0 0 0 0 0 -0 0 0 0 0 0 0 0 0 0 0 0 0 0 0 0 0 0 -0 -0 0 0 0 0 0 0 0 0
0 0 0 0 0 0 0 0 0 0 0 0 0 0 0 0 0 0 0 0 0 0 0 0 0 0 0 0 0 0 0 0 0 0 0 -0 -0 -0 -0 0 0 0 0 0
0 0 0 0 0 0 0 0 0 0 0 0 0 0 0 0 0 0 0 0 0 0 0 0 0 0 0 0 0 0 0 0 0 0 0 0 -0 -0 -0 0 0 0 0 0
Wind_Speed
2 3 2 5 5 3 2 3 5 5 2 1 6 10 10 6 3 5 5 4 5 5 3 1 1 2 2 3 2 2 2 2 1 0 1 1 1 1 0 0 0 1 1 2
3 2 4 1 1 1 1 3 5 5 2 2 5 9 8 5 4 5 5 5 5 4 3 3 2 2 2 1 2 2 1 1 1 1 1 1 1 1 1 0 0 0 1 1
4 3 1 1 1 1 3 4 5 5 4 2 4 7 5 3 2 2 2 3 3 3 3 3 2 2 2 2 2 2 2 1 1 1 0 1 1 1 0 0 0 0 0 0
2 3 0 0 2 2 5 4 4 4 2 4 1 6 6 4 4 3 3 3 3 3 2 2 2 3 3 3 2 2 1 1 1 0 0 2 1 1 1 1 1 1 1 1
3 2 1 2 3 3 4 2 3 3 4 4 2 4 8 3 4 5 4 4 3 3 2 2 2 3 3 3 2 2 1 1 1 1 0 1 0 0 0 0 0 0 1 1
3 2 1 2 2 2 1 1 1 1 1 5 5 5 8 3 4 4 3 3 3 3 3 3 3 3 3 3 3 2 1 1 1 1 0 0 0 0 1 0 1 1 1 1
3 2 1 0 2 2 2 3 2 4 2 7 2 4 9 4 3 3 4 4 3 3 2 3 3 3 3 3 3 3 2 2 1 1 0 1 1 1 2 1 1 1 1 1
1 5 2 1 2 3 2 4 5 4 5 5 2 7 7 2 2 3 3 3 3 3 3 3 3 3 3 3 3 3 2 2 1 1 1 1 0 0 1 1 1 2 2 2
3 5 3 2 1 3 2 3 2 2 1 3 6 6 7 2 3 3 3 4 3 3 3 4 4 3 3 3 2 2 2 2 1 1 1 1 0 0 1 1 1 1 1 1
3 3 4 3 1 1 1 3 3 3 2 5 6 5 5 3 4 4 4 3 4 4 4 4 4 4 3 3 2 2 2 2 2 1 1 1 1 1 1 0 1 1 2 2
1 2 3 1 2 3 2 2 2 2 3 4 5 7 3 3 3 3 4 3 3 3 3 3 3 4 4 4 3 3 2 1 1 1 1 1 1 1 1 1 1 2 2 2
1 2 3 5 2 1 3 3 4 3 5 4 4 8 1 1 1 2 3 4 3 3 3 3 3 3 3 4 4 4 3 1 1 1 1 1 1 1 1 1 2 2 2 2
3 3 2 5 2 1 1 2 3 2 2 4 6 9 1 2 3 3 3 4 4 3 3 3 3 3 3 4 4 3 3 3 2 1 1 1 1 1 1 2 2 2 2 2
2 3 6 8 6 3 4 4 3 4 4 6 9 11 8 6 5 5 4 4 3 3 4 3 3 3 3 3 3 3 4 3 3 2 1 1 2 2 2 2 2 2 2 2
2 3 5 7 5 3 6 6 6 9 9 9 10 11 12 7 5 5 4 4 3 4 4 4 4 4 4 4 3 3 3 3 3 2 2 2 2 2 2 2 2 2 2 2
2 3 2 6 5 5 8 9 9 10 8 10 10 14 9 6 4 4 5 4 5 5 6 5 4 4 4 4 4 4 3 3 3 2 2 3 3 3 3 2 2 2 2 2
2 3 2 6 4 3 10 10 10 8 8 8 12 13 6 6 7 6 5 4 6 6 6 5 4 4 4 4 3 3 3 3 2 2 3 3 3 3 3 3 3 3 3 2
5 4 2 3 2 9 9 2 6 9 9 9 9 8 7 8 7 5 4 4 5 5 5 5 4 4 4 3 2 2 2 2 2 2 3 3 3 3 3 3 3 3 3 3
6 6 3 2 5 11 8 3 4 5 8 7 9 10 8 6 5 5 3 2 4 4 4 3 3 3 3 3 2 2 2 2 2 3 3 3 3 3 3 3 3 3 3 3
2 4 4 4 4 9 6 2 2 2 7 3 5 7 6 3 4 6 3 3 4 3 3 3 3 3 3 3 2 1 1 2 3 4 4 3 3 3 3 3 3 3 2 3
3 3 6 7 8 11 6 2 3 4 6 1 2 4 3 4 6 4 4 4 3 3 3 3 2 2 3 3 2 1 2 3 4 4 3 3 3 3 3 3 3 3 2 2
8 7 7 5 7 11 3 5 7 5 1 1 2 2 3 4 4 4 4 4 4 3 4 3 3 3 3 2 2 2 3 4 4 3 3 3 3 3 2 2 3 2 2 2
8 8 7 10 9 2 3 4 2 1 2 2 3 3 3 4 4 4 4 3 3 3 3 3 3 4 4 3 2 3 5 4 4 3 3 3 3 3 3 2 2 2 2 1
4 1 3 5 7 4 3 2 2 2 3 3 3 3 3 4 4 4 4 3 3 3 3 3 3 4 5 4 3 3 5 4 3 3 3 3 3 3 3 2 2 2 2 2
5 4 4 6 6 5 3 2 3 3 2 3 3 3 3 3 4 4 4 4 3 4 4 3 3 4 5 5 4 4 4 3 3 3 3 3 3 2 2 2 2 3 2 2
5 7 6 7 5 4 4 2 2 3 4 4 4 4 4 3 4 4 4 4 3 4 4 4 4 4 5 4 5 4 4 3 2 3 3 2 2 2 2 2 3 4 4 5
Wind_Direction
44 81 211 224 215 230 214 230 257 266 275 263 250 266 279 290 281 272 270 267 269 270 294 339 348 355 7 13 7 357 360 357 18 89 209 218 218 209 185 184 101 145 157 166
55 252 246 234 216 247 241 255 269 285 291 249 274 278 276 272 257 248 257 264 266 285 320 331 343 355 351 340 333 336 332 345 330 285 238 231 217 205 197 153 98 134 125 157
192 254 247 122 83 230 252 230 251 270 315 294 298 292 283 290 289 303 278 271 286 276 287 309 326 317 320 314 304 309 313 324 304 318 11 41 54 48 66 306 264 304 277 172
250 287 310 193 241 203 258 242 242 261 285 282 274 286 289 294 310 311 304 301 295 305 312 322 332 330 315 294 301 309 309 321 324 316 162 149 166 209 252 245 231 236 204 205
256 280 252 239 254 197 236 264 238 239 224 276 255 248 283 328 299 296 298 296 298 307 301 305 316 307 311 318 323 313 336 348 349 335 213 181 192 281 346 6 198 234 230 220
260 273 226 244 297 208 192 26 8 22 123 264 234 210 276 252 253 289 313 309 309 327 332 328 335 343 344 349 351 348 355 347 345 347 4 179 201 128 112 320 229 252 275 259
319 294 286 62 36 14 61 83 15 348 314 251 191 212 253 251 253 265 293 309 312 325 329 328 334 333 338 347 348 341 338 332 335 335 325 264 238 192 195 211 226 238 259 274
286 289 263 234 180 192 204 164 170 214 240 274 228 234 250 260 302 299 298 314 337 338 331 319 315 311 316 324 335 337 326 323 330 313 304 315 333 225 260 274 263 241 248 258
200 265 312 322 317 154 163 209 195 158 291 279 263 274 292 312 319 320 322 335 332 324 323 321 324 319 314 315 317 309 310 310 308 299 319 319 299 285 297 302 306 289 291 280
169 255 296 320 32 25 153 156 120 154 201 257 274 263 260 282 291 309 318 315 316 328 329 329 328 322 319 315 318 329 310 296 300 305 297 309 298 285 302 327 307 300 302 298
145 190 298 340 201 209 145 146 165 182 196 203 268 268 229 229 244 262 279 296 307 306 307 309 316 320 329 338 337 328 316 319 323 316 314 327 315 321 323 301 294 288 293 298
158 142 264 257 234 215 184 183 166 188 242 227 245 266 279 229 280 303 311 324 326 318 318 320 324 330 336 336 336 334 331 333 309 301 307 307 330 344 323 310 315 314 301 293
145 130 350 332 324 6 268 224 203 189 197 220 237 264 315 359 345 322 312 318 324 325 324 329 335 332 331 328 328 329 331 337 338 337 322 328 334 330 309 313 321 321 313 307
135 169 195 221 243 210 246 253 216 181 214 239 241 264 290 306 309 308 305 307 314 319 317 320 323 324 328 326 326 327 328 333 340 341 335 322 314 304 306 314 317 314 312 314
137 219 237 252 258 240 241 248 220 216 223 229 252 258 271 279 278 286 295 302 308 312 310 310 315 319 325 325 327 329 329 334 340 345 337 322 326 329 337 338 330 328 328 323
161 214 252 269 260 256 264 255 236 235 237 241 259 266 268 278 275 278 282 286 290 292 296 303 311 314 312 312 317 322 322 327 337 350 340 347 353 353 352 343 340 341 336 331
188 169 225 269 298 316 265 237 215 218 218 211 236 253 275 283 276 269 272 273 276 289 298 302 301 295 295 294 302 298 305 322 340 354 349 348 346 350 350 350 353 347 335 331
193 187 203 265 345 248 248 178 198 219 235 224 239 259 264 263 274 270 257 259 282 295 302 305 308 307 304 307 313 317 329 334 343 348 346 347 346 342 344 350 344 336 334 327
202 186 185 194 246 272 281 233 182 211 255 228 236 258 273 290 300 276 258 262 273 288 296 296 304 309 313 314 316 328 335 340 340 329 326 328 325 324 329 329 326 324 325 324
179 179 177 193 222 246 254 208 189 153 268 242 220 249 271 303 284 280 340 328 317 325 329 331 339 344 335 325 319 321 315 319 306 306 309 315 314 310 305 308 315 324 321 317
172 189 201 213 236 258 255 216 134 184 260 293 236 255 257 236 243 294 333 336 335 336 336 343 345 338 327 331 341 320 315 301 304 314 317 319 316 307 307 318 326 329 329 330
185 185 200 186 225 253 201 145 184 222 286 297 292 280 263 264 288 310 324 327 331 336 337 343 340 330 332 343 346 323 309 309 320 323 324 320 316 314 317 322 327 332 327 321
205 199 192 198 220 246 166 192 232 305 281 292 292 296 282 278 283 294 300 301 310 319 322 333 331 321 326 336 331 303 306 321 327 329 323 318 321 325 325 318 319 328 326 317
234 216 210 249 260 256 248 265 300 292 274 293 295 294 277 271 276 280 283 290 299 308 315 324 320 312 313 326 326 305 310 325 320 316 316 319 320 325 332 325 316 309 305 302
219 184 217 249 273 295 262 250 276 291 297 292 289 289 287 279 277 276 283 291 297 305 313 311 301 296 301 314 315 312 315 322 315 310 311 315 311 309 319 316 307 296 291 282
194 188 199 234 229 230 260 290 306 299 299 298 295 301 309 289 282 290 288 295 302 306 313 309 304 298 298 303 301 306 308 303 294 302 306 304 301 302 299 303 318 324 319 327